Simultaneous Nadir Overpasses (SNOs) Predictions

Prediction of SNOs between AQUA and NPP Satellite Orbit:

Table of predicted SNOs for the next 14.0 days since TLE Epoch: 2/7/2020
Index Date (AQUA) Time (AQUA) Lat,Lon (AQUA) SZA (AQUA ) Date (NPP) Time (NPP) Lat,Lon (NPP) SZA (NPP ) Distance(km) Time Diff (sec)
1 02/07/2020 22:38:01 76.30, 80.52 112.47 02/07/2020 22:37:51 76.29, 80.47 112.49 1.42 10
2 02/07/2020 23:27:07 -77.34,-108.12 68.77 02/07/2020 23:28:13 -77.34,-108.06 68.83 1.43 66
3 02/10/2020 14:05:23 -75.53, 26.40 67.48 02/10/2020 14:04:20 -75.52, 26.33 67.40 2.04 63
4 02/10/2020 14:54:21 76.84,-161.77 111.02 02/10/2020 14:54:35 76.84,-161.69 110.98 2.22 14
5 02/13/2020 06:21:42 -76.13, 144.07 69.02 02/13/2020 06:21:03 -76.13, 144.12 69.00 1.36 39
6 02/13/2020 07:10:48 77.03, -45.18 109.92 02/13/2020 07:11:27 77.03, -45.17 109.88 0.27 39
7 02/15/2020 22:38:08 -76.33, -99.41 70.14 02/15/2020 22:37:54 -76.33, -99.44 70.12 0.72 14
8 02/15/2020 23:27:15 77.17, 71.24 108.85 02/15/2020 23:28:19 77.17, 71.18 108.81 1.53 64
9 02/18/2020 14:05:21 75.83,-152.73 109.53 02/18/2020 14:04:15 75.84,-152.67 109.57 1.79 66
10 02/18/2020 14:54:34 -76.57, 17.27 71.35 02/18/2020 14:54:45 -76.56, 17.19 71.33 2.41 11
11 02/21/2020 06:21:47 76.07, -36.11 108.30 02/21/2020 06:21:06 76.07, -36.11 108.33 0.22 41




NCC Satellite Simultaneous Nadir Overpasses (SNOs) Prediction Service
